Location: *
(51.1248°S, 108.4023°W)
Time: 19:39:41
(UTC+00:00)

RESURS O1 DEB - Visible Passes

Search period start: 24 January 2022 00:00
Search period end: 03 February 2022 00:00
Orbit: 612 x 615 km, 97.9° (Epoch: 24 January)

Date Brightness Start Highest point End Pass type
(mag) Time Alt. Az. Time Alt. Az. Time Alt. Az.
24 Jan ? 04:47:13 10° SSE 04:51:39 89° W 04:55:59 10° NNW visible
24 Jan ? 06:24:38 10° SSW 06:26:58 14° SW 06:29:17 10° W visible
25 Jan ? 05:02:33 10° S 05:06:55 64° WSW 05:11:12 10° NNW visible
25 Jan ? 06:40:55 10° SW 06:42:02 11° SW 06:43:09 10° WSW visible
26 Jan ? 05:17:55 10° S 05:22:08 47° WSW 05:26:18 10° NW visible
27 Jan ? 03:57:24 10° SSE 04:01:20 31° E 04:05:12 10° NNE visible
27 Jan ? 05:33:20 10° S 05:37:19 34° WSW 05:41:15 10° NW visible
28 Jan ? 04:12:28 10° SSE 04:16:40 43° E 04:20:48 10° N visible
28 Jan ? 05:48:49 10° S 05:52:27 26° WSW 05:56:03 10° WNW visible
29 Jan ? 04:27:37 10° SSE 04:31:58 60° ENE 04:36:15 10° N visible
29 Jan ? 06:04:21 10° SSW 06:07:33 20° WSW 06:10:43 10° WNW visible
30 Jan ? 04:42:48 10° SSE 04:47:13 83° ENE 04:51:34 10° NNW visible
30 Jan ? 06:20:02 10° SSW 06:22:36 15° WSW 06:25:09 10° W visible
31 Jan ? 04:58:02 10° S 05:02:25 71° WSW 05:06:44 10° NNW visible
31 Jan ? 06:36:00 10° SSW 06:37:36 12° SW 06:39:12 10° WSW visible
01 Feb ? 03:37:59 10° SE 03:41:19 21° E 03:44:37 10° NE visible
01 Feb ? 05:13:19 10° S 05:17:35 51° WSW 05:21:47 10° NW visible
02 Feb ? 03:52:50 10° SE 03:56:38 28° E 04:00:23 10° NNE visible
02 Feb ? 05:28:38 10° S 05:32:42 38° WSW 05:36:43 10° NW visible
